Weather History for Manchester, NH

Change the Weather History Date:

Wednesday, April 10, 2013

  Actual Average Record
Temperature  
Mean Temperature 51 °F -  
Max Temperature 57 °F 53 °F 79 °F (1981)
Min Temperature 45 °F 30 °F 19 °F (1995)
Degree Days  
Heating Degree Days 14    
Growing Degree Days 1 (Base 50)    
Moisture  
Dew Point 46 °F    
Average Humidity 83    
Maximum Humidity 96    
Minimum Humidity 65    
Precipitation  
Precipitation 0.67 in - - ()
Sea Level Pressure  
Sea Level Pressure 29.95 in    
Wind  
Wind Speed 3 mph (South)    
Max Wind Speed 9 mph    
Max Gust Speed -    
Visibility 8 miles    
Events Rain    
Averages and records for this station are not official NWS values.
T = Trace of Precipitation, MM = Missing Value Source: NWS Daily Summary

Daily Weather History Graph

Daily Weather History Graph

Search for Another Location

Airport:

Trip Planner

Search our weather history database for the weather conditions in past years. The results will help you decide how hot, cold, wet, or windy it might be!

Date:

Astronomy

Apr. 10, 2013 Rise Set
Actual Time 6:11 AM EDT 7:22 PM EDT
Civil Twilight 5:42 AM EDT 7:51 PM EDT
Nautical Twilight 5:08 AM EDT 8:26 PM EDT
Astronomical Twilight 4:31 AM EDT 9:03 PM EDT
Moon 6:05 AM EDT (4/10) 7:57 PM EDT (4/10)
Length of Visible Light 14h 09m
Length of Day
13h 10m
Waxing Crescent, 0% of the Moon is Illuminated
Apr 10
Waxing Crescent
Apr 18
First Quarter
Apr 25
Full
May 2
Last Quarter
May 9
New

Hourly Weather History & Observations

Time (EDT) Temp. Windchill Dew Point Humidity Pressure Visibility Wind Dir Wind Speed Gust Speed Precip Events Conditions
12:53 AM 48.9 °F - 41.0 °F 74% 29.97 in 10.0 mi East 8.1 mph - N/A   Overcast
1:53 AM 48.0 °F - 42.1 °F 80% 30.03 in 10.0 mi South 4.6 mph - 0.00 in Rain Light Rain
2:53 AM 46.9 °F - 43.0 °F 86% 30.03 in 5.0 mi South 3.5 mph - 0.03 in Rain Rain
3:53 AM 46.0 °F 42.5 °F 43.0 °F 89% 29.96 in 6.0 mi SE 6.9 mph - 0.10 in Rain Light Rain
4:53 AM 45.0 °F - 43.0 °F 93% 29.97 in 10.0 mi Calm Calm - 0.03 in   Overcast
5:53 AM 46.0 °F - 42.1 °F 86% 29.96 in 10.0 mi Calm Calm - N/A   Overcast
6:50 AM 46.4 °F - 42.8 °F 87% 29.93 in 9.0 mi Calm Calm - N/A   Overcast
6:53 AM 46.0 °F - 43.0 °F 89% 29.97 in 9.0 mi Calm Calm - N/A   Overcast
6:58 AM 46.4 °F - 42.8 °F 87% 29.93 in 8.0 mi Calm Calm - N/A   Overcast
7:45 AM 46.4 °F - 42.8 °F 87% 29.94 in 10.0 mi Calm Calm - N/A   Overcast
7:53 AM 46.9 °F - 43.0 °F 86% 29.98 in 10.0 mi Calm Calm - N/A   Overcast
8:53 AM 46.9 °F - 44.1 °F 90% 30.00 in 6.0 mi NNE 4.6 mph - N/A   Overcast
9:49 AM 48.2 °F - 44.6 °F 87% 29.96 in 7.0 mi Calm Calm - N/A   Overcast
9:53 AM 48.0 °F - 45.0 °F 89% 30.00 in 7.0 mi Calm Calm - N/A   Overcast
10:36 AM 48.2 °F - 44.6 °F 87% 29.96 in 8.0 mi Calm Calm - N/A   Overcast
10:53 AM 50.0 °F - 46.0 °F 86% 30.00 in 7.0 mi Calm Calm - N/A   Overcast
11:06 AM 51.8 °F - 46.4 °F 82% 29.96 in 8.0 mi NNW 3.5 mph - N/A   Overcast
11:30 AM 51.8 °F - 46.4 °F 82% 29.95 in 10.0 mi Calm Calm - N/A   Overcast
11:53 AM 54.0 °F - 46.9 °F 77% 29.99 in 10.0 mi Variable 4.6 mph - N/A   Overcast
12:18 PM 55.4 °F - 46.4 °F 72% 29.94 in 10.0 mi Calm Calm - N/A   Overcast
12:53 PM 55.4 °F - 44.6 °F 67% 29.95 in 10.0 mi North 3.5 mph - N/A   Overcast
1:53 PM 55.0 °F - 46.0 °F 72% 29.99 in 10.0 mi South 4.6 mph - N/A   Overcast
2:53 PM 55.0 °F - 46.0 °F 72% 29.99 in 10.0 mi South 3.5 mph - N/A   Overcast
3:35 PM 57.2 °F - 46.4 °F 67% 29.87 in 10.0 mi Calm Calm - N/A   Mostly Cloudy
3:53 PM 57.9 °F - 46.9 °F 67% 29.91 in 10.0 mi Calm Calm - N/A   Scattered Clouds
4:53 PM 57.9 °F - 46.0 °F 65% 29.94 in 10.0 mi West 3.5 mph - N/A   Overcast
5:53 PM 57.9 °F - 46.0 °F 65% 29.92 in 10.0 mi Calm Calm - N/A   Overcast
6:53 PM 57.9 °F - 46.0 °F 65% 29.90 in 10.0 mi Calm Calm - N/A   Overcast
7:53 PM 55.0 °F - 51.1 °F 86% 29.92 in 4.0 mi SSW 8.1 mph - 0.16 in Rain Rain
8:35 PM 53.6 °F - 51.8 °F 94% 29.88 in 4.0 mi South 3.5 mph - 0.13 in Rain Light Rain
8:48 PM 53.6 °F - 51.8 °F 94% 29.90 in 3.0 mi SW 3.5 mph - 0.17 in Rain Rain
8:53 PM 53.1 °F - 51.1 °F 93% 29.94 in 4.0 mi SSW 3.5 mph - 0.18 in Rain Light Rain
9:53 PM 51.1 °F - 48.0 °F 89% 29.93 in 7.0 mi Calm Calm - 0.10 in Rain Light Rain
10:32 PM 50.0 °F - 48.2 °F 94% 29.88 in 8.0 mi NNE 5.8 mph - 0.00 in Rain Light Rain
10:53 PM 50.0 °F - 48.0 °F 93% 29.93 in 4.0 mi NNE 9.2 mph - 0.01 in Rain Light Rain
11:53 PM 48.0 °F - 46.9 °F 96% 29.93 in 2.0 mi NNE 6.9 mph - 0.06 in Rain Light Rain